Carbondale, IL

9:36 AM CDT on October 22, 2019 (GMT -0500)
Southern Illinois

Weather History for KMDH - July, 2019

Change the Weather History Date:

Wednesday, July 17, 2019

  Actual Average Record
Temperature  
Mean Temperature 82 °F -  
Max Temperature 91 °F 89 °F 103 °F (1921)
Min Temperature 72 °F 65 °F 52 °F (1930)
Cooling Degree Days 16    
Growing Degree Days 32 (Base 50)    
Moisture  
Dew Point 74 °F    
Average Humidity 85    
Maximum Humidity 100    
Minimum Humidity 58    
Precipitation  
Precipitation 0.12 in - - ()
Sea Level Pressure  
Sea Level Pressure 29.96 in    
Wind  
Wind Speed 7 mph (SW)    
Max Wind Speed 20 mph    
Max Gust Speed 34 mph    
Visibility 9 miles    
Events Rain    
Averages and records for this station are not official NWS values.
T = Trace of Precipitation, MM = Missing Value Source: NWS Daily Summary

Daily Weather History Graph

Daily Weather History Graph

Search for Another Location

Airport or City:

Astronomy

Jul. 17, 2019 Rise Set
Actual Time 5:48 AM CDT 8:17 PM CDT
Civil Twilight 5:18 AM CDT 8:47 PM CDT
Nautical Twilight 4:40 AM CDT 9:25 PM CDT
Astronomical Twilight 3:58 AM CDT 10:06 PM CDT
Moon 9:06 PM CDT (7/17) 6:20 AM CDT (7/17)
Length of Visible Light 15h 29m
Length of Day
14h 29m
Full, 99% of the Moon is Illuminated
Jul 17
Full
Jul 24
Last Quarter
Jul 31
New
Aug 7
First Quarter
Aug 15
Full

Hourly Weather History & Observations

Time (CDT) Temp. Heat Index Dew Point Humidity Pressure Visibility Wind Dir Wind Speed Gust Speed Precip Events Conditions
12:09 AM 75.0 °F - 73.9 °F 96% 29.93 in 10.0 mi SW 6.9 mph - N/A   Scattered Clouds
12:24 AM 75.0 °F - 73.9 °F 96% 29.93 in 10.0 mi SW 6.9 mph - N/A   Scattered Clouds
12:36 AM 75.0 °F - 73.9 °F 96% 29.93 in 10.0 mi SW 5.8 mph - N/A   Mostly Cloudy
12:52 AM 75.0 °F - 73.9 °F 96% 29.92 in 10.0 mi WSW 5.8 mph - N/A   Overcast
1:52 AM 75.0 °F - 73.9 °F 96% 29.92 in 10.0 mi SW 5.8 mph - N/A   Mostly Cloudy
1:59 AM 75.0 °F - 73.9 °F 96% 29.92 in 10.0 mi SW 5.8 mph - N/A   Mostly Cloudy
2:18 AM 75.0 °F - 73.9 °F 96% 29.93 in 10.0 mi SW 5.8 mph - N/A   Mostly Cloudy
2:36 AM 75.0 °F - 73.9 °F 96% 29.92 in 10.0 mi SW 6.9 mph - N/A   Scattered Clouds
2:52 AM 75.0 °F - 73.9 °F 96% 29.91 in 10.0 mi SW 5.8 mph - N/A   Partly Cloudy
3:52 AM 73.9 °F - 73.0 °F 97% 29.91 in 9.0 mi SW 4.6 mph - N/A   Clear
4:52 AM 73.9 °F - 73.0 °F 97% 29.93 in 9.0 mi SW 4.6 mph - N/A   Clear
5:52 AM 73.0 °F - 72.0 °F 96% 29.94 in 6.0 mi SSW 3.5 mph - N/A   Clear
6:52 AM 75.0 °F - 75.0 °F 100% 29.95 in 8.0 mi South 3.5 mph - N/A   Clear
7:52 AM 78.1 °F - 75.0 °F 90% 29.97 in 10.0 mi WSW 6.9 mph - N/A   Clear
8:52 AM 81.0 °F 87.3 °F 75.9 °F 85% 29.99 in 10.0 mi SW 6.9 mph - N/A   Clear
9:52 AM 82.9 °F 90.8 °F 75.9 °F 79% 29.99 in 10.0 mi SW 8.1 mph - N/A   Scattered Clouds
10:41 AM 86.0 °F 96.0 °F 75.9 °F 72% 30.00 in 10.0 mi SW 8.1 mph - N/A   Mostly Cloudy
10:52 AM 87.1 °F 97.3 °F 75.9 °F 69% 29.99 in 10.0 mi WSW 6.9 mph - N/A   Mostly Cloudy
11:52 AM 87.1 °F 95.4 °F 73.9 °F 65% 29.99 in 10.0 mi WSW 8.1 mph - N/A   Mostly Cloudy
12:48 PM 89.6 °F 99.8 °F 75.2 °F 62% 29.99 in 10.0 mi West 11.5 mph - N/A   Mostly Cloudy
12:52 PM 89.1 °F 99.1 °F 75.0 °F 63% 29.98 in 10.0 mi SW 9.2 mph - N/A   Mostly Cloudy
1:52 PM 90.0 °F 100.2 °F 75.0 °F 61% 29.96 in 10.0 mi SW 9.2 mph - N/A   Scattered Clouds
2:52 PM 91.0 °F 101.6 °F 75.0 °F 59% 29.95 in 10.0 mi SW 9.2 mph - N/A   Partly Cloudy
3:52 PM 91.9 °F 103.2 °F 75.0 °F 58% 29.93 in 10.0 mi SW 6.9 mph - N/A   Clear
4:52 PM 91.0 °F 102.9 °F 75.9 °F 61% 29.93 in 10.0 mi SSW 8.1 mph - N/A   Scattered Clouds
6:52 PM 86.0 °F 98.3 °F 78.1 °F 77% 29.97 in 10.0 mi West 19.6 mph 34.5 mph N/A   Mostly Cloudy
7:10 PM 75.9 °F - 72.0 °F 87% 30.00 in 3.0 mi West 18.4 mph 27.6 mph 0.04 in Rain Light Rain
7:17 PM 73.9 °F - 72.0 °F 93% 30.00 in 2.0 mi WSW 12.7 mph 27.6 mph 0.07 in Rain Light Rain
7:25 PM 73.9 °F - 72.0 °F 93% 30.00 in 10.0 mi West 9.2 mph - 0.07 in Rain Light Rain
7:52 PM 73.9 °F - 72.0 °F 93% 30.02 in 9.0 mi WNW 16.1 mph 32.2 mph 0.10 in Rain Light Rain
8:52 PM 73.9 °F - 71.1 °F 91% 30.02 in 10.0 mi NW 3.5 mph - 0.02 in   Partly Cloudy
9:52 PM 73.0 °F - 70.0 °F 90% 29.99 in 10.0 mi West 5.8 mph - N/A   Scattered Clouds
10:52 PM 72.0 °F - 71.1 °F 97% 29.95 in 10.0 mi WSW 10.4 mph - N/A   Clear
11:52 PM 73.0 °F - 71.1 °F 93% 29.93 in 10.0 mi SW 5.8 mph - N/A   Partly Cloudy